This is the latest recevied weather packets stored in our database for station/object IU5JAE-13. If no packets are shown the sender has not sent any weather packets the latest 10 day(s).
| Time | Temp. | Humidity | Pressure | Rain* | Wind** | Luminosity | Snow |
|---|---|---|---|---|---|---|---|
| 1788096024 | 28.89° C | 39% | 1017 hPa | 0 mm | - | 471 W/m² | - |
| 1788095421 | 28.89° C | 38% | 1017 hPa | 0 mm | - | 496 W/m² | - |
| 1788094819 | 28.33° C | 39% | 1017.1 hPa | 0 mm | - | 520 W/m² | - |
| 1788094217 | 28.33° C | 38% | 1017.1 hPa | 0 mm | - | 542 W/m² | - |
| 1788093634 | 28.33° C | 39% | 1017.3 hPa | 0 mm | - | 562 W/m² | - |
| 1788093032 | 28.33° C | 40% | 1017.3 hPa | 0 mm | - | 579 W/m² | - |
| 1788092429 | 28.33° C | 41% | 1017.3 hPa | 0 mm | - | 594 W/m² | - |
| 1788091827 | 27.78° C | 41% | 1017.3 hPa | 0 mm | - | 606 W/m² | - |
| 1788091224 | 27.78° C | 42% | 1017.3 hPa | 0 mm | - | 616 W/m² | - |
| 1788090622 | 27.78° C | 43% | 1017.2 hPa | 0 mm | - | 621 W/m² | - |
| 1788090020 | 27.78° C | 44% | 1017.2 hPa | 0 mm | - | 622 W/m² | - |
| 1788089417 | 27.78° C | 43% | 1017.1 hPa | 0 mm | - | 619 W/m² | - |
| 1788088835 | 28.33° C | 41% | 1017.1 hPa | 0 mm | - | 615 W/m² | - |
| 1788088233 | 27.78° C | 43% | 1017.2 hPa | 0 mm | - | 613 W/m² | - |
| 1788087630 | 27.78° C | 45% | 1017.1 hPa | 0 mm | - | 613 W/m² | - |
| 1788087028 | 27.22° C | 46% | 1017.1 hPa | 0 mm | - | 612 W/m² | - |
| 1788086425 | 26.67° C | 46% | 1017.3 hPa | 0 mm | - | 611 W/m² | - |
| 1788085823 | 26.11° C | 47% | 1017.2 hPa | 0 mm | - | 608 W/m² | - |
| 1788085220 | 26.11° C | 47% | 1017.3 hPa | 0 mm | - | 602 W/m² | - |
| 1788084618 | 26.11° C | 49% | 1017.4 hPa | 0 mm | - | 591 W/m² | - |
| 1788084016 | 26.11° C | 49% | 1017.5 hPa | 0 mm | - | 578 W/m² | - |
| 1788083433 | 26.11° C | 51% | 1017.5 hPa | 0 mm | - | 564 W/m² | - |
| 1788082831 | 25.56° C | 50% | 1017.5 hPa | 0 mm | - | 552 W/m² | - |
| 1788082228 | 25.56° C | 50% | 1017.4 hPa | 0 mm | - | 539 W/m² | - |
| 1788081626 | 25° C | 49% | 1017.6 hPa | 0 mm | - | 521 W/m² | - |
* Rain latest hour (hover to see other rain measurements)
** Current wind speed in m/s (hover to see current wind gust speed)